Regional Weather Roundup
Issued by NWS

Home | Current Version | Previous Version | Graphics & Text | Print | Product List | Glossary On
Versions: 1 2 3 4 5 6 7 8 9 10 11 12 13 14 15 16 17 18 19 20 21 22 23 24 25 26 27 28 29 30 31 32 33 34 35 36 37 38 39 40 41 42 43 44 45 46 47 48 49 50
000
ASUS43 KMPX 260901
RWRMN
WEATHER ROUNDUP FOR MINNESOTA
NATIONAL WEATHER SERVICE TWIN CITIES/CHANHASSEN MN
300 AM CST SUN FEB 26 2017


NOTE: "FAIR" INDICATES FEW OR NO CLOUDS BELOW 12,000 FEET WITH NO
SIGNIFICANT WEATHER AND/OR OBSTRUCTIONS TO VISIBILITY. N/A MEANS
CURRENT SKY AND/OR WEATHER CONDITIONS ARE NOT AVAILABLE.

MNZ060>063-068>070-261000-
   Twin Cities Metro

CITY           SKY/WX    TMP DP  RH WIND       PRES   REMARKS
TWIN CITIES    CLOUDY    25  16  68 S7        29.76F WCI  17
ST PAUL        CLOUDY    25  18  74 SE6       29.78F WCI  18
CRYSTAL        LGT SNOW  24  16  71 S12       29.74F WCI  13
BLAINE         LGT SNOW  27  19  74 S12       29.74S WCI  16
LAKEVILLE      CLEAR     23  18  80 SW3       29.75F
EDEN PRAIRIE   CLOUDY    24  16  71 S10       29.74F WCI  14
SOUTH ST PAUL  PTCLDY    25  17  73 S6        29.76F WCI  18
LAKE ELMO      FAIR      27  19  74 S7        29.76F WCI  19
$$
MNZ001>005-007-008-013>017-022>024-027-028-261000-
   Northwest Minnesota

CITY           SKY/WX    TMP DP  RH WIND       PRES   REMARKS
BEMIDJI        CLOUDY    18  14  85 N3        29.64S
HALLOCK        CLOUDY    10   3  72 NW5       29.75R WCI   2
ROSEAU         MOCLDY    12   7  79 NW6       29.72R WCI   3
WARROAD        PTCLDY    10   3  72 NW7       29.71R WCI   0
THIEF RVR FALL LGT SNOW  12   9  87 N8        29.72S FOG     WCI   0
CROOKSTON      LGT SNOW  14  12  92 N10       29.74S WCI   1
FOSSTON        LGT SNOW  14  10  85 N12       29.68S WCI   0
DETROIT LAKES  CLOUDY    21  21 100 SW3       29.65F FOG
MOORHEAD       SNOW      21  19  93 N13       29.69R VSB 1/2 WCI   9
PARK RAPIDS    CLOUDY    22  18  85 S6        29.63S FOG     WCI  14
MAHNOMEN       LGT SNOW  19  16  89 N15       29.65F WCI   4
$$
MNZ006-009>011-018-025>026-261000-
   North Central Minnesota

CITY           SKY/WX    TMP DP  RH WIND       PRES   REMARKS
BAUDETTE       LGT SNOW  11   4  73 NW9       29.68R WCI  -2
FLAG ISLAND    PTCLDY     9   1  72 NW10      29.69S WCI  -6
INTL FALLS     FLURRIES  12   7  80 W6        29.66S WCI   3
WASKISH        LGT SNOW  12  10  92 NW3       29.68S
BIG FORK       FLURRIES  12  10  92 CALM      29.65S
LONGVILLE      CLOUDY    25  23  93 CALM      29.64F
GRAND RAPIDS   CLOUDY    22  19  89 N5        29.66S WCI  16
CRANE LAKE     CLOUDY     9   7  92 CALM      29.68S
ORR            MOCLDY    10   9  92 CALM      29.62F
COOK           PTCLDY    14  12  92 CALM      29.64F
WALKER         CLOUDY    21  17  84 CALM      29.64S
$$
MNZ012-019>021-037-261000-
   Northeast Minnesota

CITY           SKY/WX    TMP DP  RH WIND       PRES   REMARKS
DULUTH         LGT SNOW  25  23  92 SW12      29.63F FOG     WCI  14
ELY            LGT SNOW  19  18  93 W3        29.63F
HIBBING        CLOUDY    19  17  92 N3        29.63F
EVELETH        LGT SNOW  22  19  87 NW3       29.64F
DULUTH HARBOR  LGT SNOW  27  25  93 CALM      29.69F VSB 3/4
TWO HARBORS    LGT SNOW  27  21  80 CALM      29.63F VSB 1
SILVER BAY     MIX PCPN  19  19 100 CALM      29.63F
G MARAIS ARPRT CLOUDY    16  10  79 NW3       29.60F
$$
MNZ029>031-032-039>041-046>048-054>057-064-261000-
   West Central Minnesota

CITY           SKY/WX    TMP DP  RH WIND       PRES   REMARKS
FERGUS FALLS   FOG       18  18 100 CALM      29.72F VSB<1/4
WHEATON        CLOUDY    25  23  93 CALM      29.72R
MORRIS         PTCLDY    25  25 100 CALM      29.68S
ALEXANDRIA     CLOUDY    24  22  91 W6        29.67S WCI  17
ELBOW LAKE     SNOW      21  20  98 CALM      29.69S VSB 1/4
WADENA         FOG       19  18  93 CALM      29.65F VSB 1/2
GLENWOOD       CLOUDY    27  25  93 W9        29.68S WCI  17
APPLETON       CLEAR     25  21  86 SW5       29.70F WCI  19
BENSON         CLEAR     27  19  74 W7        29.71S WCI  19
ORTONVILLE     FOG       25  23  93 CALM      29.71R VSB 1/2
MADISON        PTCLDY    27  25  93 SW5       29.71S WCI  21
WILLMAR        FAIR      27  23  86 SW8       29.71F WCI  18
$$
MNZ033>034-036-042>043-049>051-058-059-261000-
   Central Minnesota

CITY           SKY/WX    TMP DP  RH WIND       PRES   REMARKS
ST CLOUD       CLOUDY    26  21  81 SW9       29.70F WCI  17
SAUK CENTRE    CLOUDY    27  23  85 W6        29.68S WCI  20
PAYNESVILLE    CLOUDY    26  22  85 S5        29.70F WCI  21
AITKIN         CLOUDY    28  23  80 CALM      29.64F
PINE RIVER     CLOUDY    23  23 100 CALM      29.69F
BRAINERD       CLOUDY    21  20  96 W3        29.66F
STAPLES        CLOUDY    12  12 100 CALM      29.66F FOG
LONG PRAIRIE   CLOUDY    28  23  80 S6        29.67F WCI  22
LITTLE FALLS   CLOUDY    28  21  74 SW3       29.69S
LITCHFIELD     CLOUDY    25  21  86 CALM      29.71F
BUFFALO        CLOUDY    25  19  80 S5        29.74S WCI  19
MAPLE LAKE     CLOUDY    25  22  87 S3        29.73S
HUTCHINSON     CLOUDY    25  22  89 S3        29.73F
$$
MNZ037-044-045-052-053-261000-
   East Central Minnesota

CITY           SKY/WX    TMP DP  RH WIND       PRES   REMARKS
PRINCETON      CLOUDY    27  21  80 S7        29.71S WCI  19
MORA           CLOUDY    27  21  80 SW9       29.71F WCI  17
CAMBRIDGE      FLURRIES  27  18  69 S8        29.70F WCI  18
RUSH CITY      CLOUDY    25  19  80 SW8       29.72S WCI  16
MOOSE LAKE     CLOUDY    27  23  86 SW8       29.66F WCI  18
HINCKLEY       CLOUDY    27  23  86 SW10      29.69F WCI  17
CLOQUET        LGT SNOW  25  21  86 SW6       29.65S WCI  18
MCGREGOR       CLOUDY    27  25  93 CALM      29.66S
$$
MNZ071>073-080-081-089-090-097-098-261000-
   Southwest Minnesota

CITY           SKY/WX    TMP DP  RH WIND       PRES   REMARKS
MONTEVIDEO     CLEAR     25  21  86 W6        29.73S WCI  18
GRANITE FALLS  CLEAR     26  23  85 SW9       29.73F WCI  17
CANBY          CLEAR     26  22  85 CALM      29.72S
MARSHALL       CLEAR     23  19  85 SW8       29.73S WCI  14
REDWOOD FALLS  CLOUDY    25  19  78 SW9       29.73F WCI  15
OLIVIA         PTCLDY    27  21  80 SW6       29.72S WCI  20
PIPESTONE      CLEAR     19  14  79 SW7       29.72S WCI  10
WINDOM         PTCLDY    21  18  86 SW9       29.74S WCI  11
WORTHINGTON    CLEAR     20  17  88 SW13      29.74F WCI   7
JACKSON        CLOUDY    21  16  79 SW9       29.75F WCI  11
TRACY          PTCLDY    24  21  86 SW13      29.72S WCI  13
SLAYTON        PTCLDY    21  18  89 SW10      29.72F WCI  10
$$
MNZ065>067-074>077-082>085-091>093-261000-
   South Central Minnesota

CITY           SKY/WX    TMP DP  RH WIND       PRES   REMARKS
MANKATO          N/A     23  18  81 SW9       29.76F WCI  13
NEW ULM        CLEAR     23  18  80 SW7       29.74F WCI  15
ST JAMES       PTCLDY    21  18  86 S10       29.75F WCI  10
FAIRMONT       CLEAR     17  14  88 S10       29.77F WCI   5
GLENCOE        CLOUDY    25  22  89 S7        29.73F WCI  17
FARIBAULT      CLOUDY    23  18  80 S9        29.76F WCI  13
OWATONNA       PTCLDY    25  16  68 S13       29.76F WCI  13
WASECA         PTCLDY    25  19  80 S15       29.78F WCI  12
ALBERT LEA     CLOUDY    27  19  74 S10       29.77F WCI  17
$$
MNZ078>079-086>088-094>096-261000-
   Southeast Minnesota

CITY           SKY/WX    TMP DP  RH WIND       PRES   REMARKS
ROCHESTER      CLOUDY    25  18  74 S18       29.78F WCI  11
RED WING       CLEAR     27  16  63 SW9       29.78F WCI  17
STANTON        PTCLDY    22  16  76 S10       29.75F WCI  11
WINONA         CLOUDY    30  21  69 SW5       29.83F WCI  25
AUSTIN         CLEAR     23  18  80 S10       29.79F WCI  12
PRESTON        CLOUDY    25  18  73 S14       29.80F WCI  13
$$
ABBREVIATIONS USED IN REMARKS
   TC - TEMPERATURES IN CELSIUS
  WCI - WIND CHILL INDEX
   HX - HEAT INDEX
  VSB - VISIBILITY
$$




USA.gov is the U.S. government's official web portal to all federal, state and local government web resources and services.